This is the latest recevied weather packets stored in our database for station/object VA3ECP. If no packets are shown the sender has not sent any weather packets the latest 10 day(s).
| Time | Temp. | Humidity | Pressure | Rain* | Wind** | Luminosity | Snow |
|---|---|---|---|---|---|---|---|
| 1777409419 | 18.89° C | 47% | 1013.1 hPa | 0 mm | - | - | - |
| 1777408222 | 18.33° C | 48% | 1013.1 hPa | 0 mm | - | - | - |
| 1777406421 | 19.44° C | 42% | 1013.4 hPa | 0 mm | - | - | - |
| 1777405225 | 19.44° C | 42% | 1013.2 hPa | 0 mm | - | - | - |
| 1777398619 | 20° C | 39% | 1014.5 hPa | 0 mm | - | - | - |
| 1777397420 | 20.56° C | 39% | 1014.3 hPa | 0 mm | - | - | - |
| 1777396824 | 20.56° C | 40% | 1014.2 hPa | 0 mm | - | - | - |
| 1777392025 | 20.56° C | 43% | 1015 hPa | 0 mm | - | - | - |
| 1777391421 | 20.56° C | 43% | 1014.8 hPa | 0 mm | - | - | - |
| 1777386035 | 19.44° C | 47% | 1015 hPa | 0 mm | - | - | - |
| 1777383630 | 18.33° C | 53% | 1015.2 hPa | 0 mm | - | - | - |
| 1777381221 | 18.33° C | 52% | 1015.4 hPa | 0 mm | - | - | - |
| 1777379421 | 17.22° C | 55% | 1015.5 hPa | 0 mm | - | - | - |
| 1777378228 | 16.67° C | 58% | 1015.8 hPa | 0 mm | - | - | - |
| 1777375822 | 13.89° C | 65% | 1016.3 hPa | 0 mm | - | - | - |
| 1777371623 | 10.56° C | 71% | 1016.4 hPa | 0 mm | - | - | - |
| 1777369237 | 10.56° C | 70% | 1016.7 hPa | 0 mm | - | - | - |
| 1777366819 | 11.67° C | 67% | 1016.8 hPa | 0 mm | - | - | - |
| 1777365023 | 12.22° C | 65% | 1016.8 hPa | 0 mm | - | - | - |
| 1777357223 | 10° C | 71% | 1017.9 hPa | 0 mm | - | - | - |
| 1777356620 | 9.44° C | 71% | 1018.1 hPa | 0 mm | - | - | - |
| 1777355424 | 10° C | 71% | 1017.8 hPa | 0 mm | - | - | - |
| 1777351825 | 10° C | 70% | 1018.2 hPa | 0 mm | - | - | - |
| 1777350625 | 10° C | 70% | 1018.6 hPa | 0 mm | - | - | - |
| 1777343420 | 12.22° C | 60% | 1020.5 hPa | 0 mm | - | - | - |
* Rain latest hour (hover to see other rain measurements)
** Current wind speed in m/s (hover to see current wind gust speed)